User: anonymous
Location: Unspecified
(0.0000°N, 0.0000°E)
Time: 03:19:38
(UTC+00:00)
Language:

Transit 2A Rocket - Orbit

View from above orbital plane
View from above orbital plane
View from above satellite
View from above satellite

Ground track
Ground track

The orbit data is extracted from the following two-line orbital elements,

1 00047U 60007C   14113.85244961  .00000499  00000-0  13932-3 0  1886
2 00047 066.6689 039.5340 0225899 147.7964 213.7170 14.41076905811256
Epoch (UTC): 23 April 2014 20:27:31
Eccentricity: 0.0225899
inclination: 66.6689°
perigee height: 594 km
apogee height: 916 km
right ascension of ascending node: 39.5340°
argument of perigee: 147.7964°
revolutions per day: 14.41076905
mean anomaly at epoch: 213.7170°
orbit number at epoch: 81125

The dashed part of the orbit path shows where the satellite is in the earth's shadow,  

DLR